Precipitable_Water
1.25 1.29 1.38 1.37 1.27 1.19 1.24 1.35 1.44 1.48 1.49 1.53 1.58 1.55 1.53 1.50 1.40 1.29 1.17 1.12 0.92 0.77
1.29 1.28 1.32 1.41 1.38 1.28 1.31 1.38 1.48 1.55 1.49 1.53 1.52 1.50 1.48 1.39 1.29 1.16 1.02 0.82 0.75 0.72
1.24 1.33 1.41 1.50 1.36 1.34 1.33 1.40 1.48 1.52 1.50 1.44 1.40 1.40 1.40 1.27 1.14 0.90 0.78 0.73 0.70 0.71
1.32 1.40 1.48 1.43 1.36 1.38 1.42 1.43 1.43 1.42 1.38 1.34 1.32 1.33 1.26 1.13 0.92 0.76 0.72 0.73 0.72 0.71
1.41 1.50 1.44 1.40 1.36 1.41 1.42 1.46 1.43 1.33 1.31 1.28 1.27 1.23 1.13 0.94 0.82 0.74 0.71 0.73 0.74 0.72
1.43 1.39 1.41 1.40 1.38 1.38 1.39 1.41 1.38 1.29 1.25 1.22 1.20 1.14 1.00 0.86 0.78 0.74 0.74 0.76 0.74 0.69
1.33 1.38 1.41 1.38 1.36 1.34 1.36 1.32 1.30 1.25 1.22 1.18 1.13 1.05 0.89 0.79 0.75 0.75 0.78 0.78 0.74 0.71
1.33 1.41 1.40 1.37 1.36 1.36 1.33 1.33 1.30 1.21 1.18 1.14 1.05 0.93 0.82 0.75 0.75 0.76 0.73 0.74 0.72 0.68
1.28 1.36 1.38 1.36 1.35 1.34 1.28 1.26 1.23 1.17 1.14 1.05 0.96 0.87 0.76 0.75 0.75 0.72 0.72 0.69 0.67 0.67
1.17 1.21 1.26 1.33 1.30 1.30 1.25 1.22 1.19 1.16 1.09 0.98 0.89 0.79 0.77 0.76 0.74 0.72 0.70 0.69 0.67 0.60
1.10 1.16 1.24 1.22 1.20 1.20 1.19 1.17 1.15 1.09 1.02 0.91 0.81 0.77 0.77 0.74 0.72 0.72 0.73 0.72 0.62 0.51
1.10 1.11 1.10 1.12 1.12 1.14 1.13 1.12 1.09 1.04 0.95 0.83 0.75 0.75 0.72 0.73 0.74 0.72 0.73 0.64 0.58 0.50
1.10 1.11 1.12 1.16 1.12 1.15 1.15 1.10 1.05 0.99 0.89 0.77 0.70 0.71 0.75 0.77 0.73 0.75 0.65 0.61 0.53 0.47
1.08 1.10 1.16 1.18 1.20 1.17 1.10 1.09 1.03 0.92 0.81 0.72 0.70 0.75 0.79 0.78 0.82 0.70 0.61 0.52 0.46 0.42
Wind_Speed
38 38 38 40 37 35 33 31 29 28 27 26 25 24 22 22 21 21 20 20 19 19
40 38 40 41 39 37 34 32 30 29 27 25 24 22 21 21 20 20 19 19 19 20
42 39 39 40 40 38 36 34 31 29 27 25 23 23 21 20 20 20 20 20 21 22
42 40 39 40 40 40 38 35 33 30 28 26 24 23 22 21 21 21 21 21 22 23
41 40 39 39 40 39 39 36 34 31 29 27 25 24 24 23 22 22 22 23 23 24
38 38 38 38 38 38 37 36 34 32 30 27 25 24 24 23 23 22 23 23 24 24
36 36 36 37 37 36 36 36 35 32 30 28 26 25 24 24 23 23 24 24 24 24
35 35 35 36 36 36 36 35 34 32 30 29 27 26 25 24 23 24 24 24 23 24
33 34 35 35 36 35 35 35 34 32 31 29 28 27 26 25 24 24 24 23 24 24
34 33 34 34 34 34 34 34 33 32 31 30 28 28 26 25 25 24 24 24 23 23
34 34 35 35 35 34 33 33 33 32 31 30 29 28 26 26 25 24 24 23 22 22
33 35 36 36 35 35 34 33 33 32 31 30 29 29 28 26 25 25 24 23 23 23
33 34 35 36 36 35 34 33 33 31 31 30 30 29 27 26 26 25 24 24 23 23
33 34 35 35 35 35 33 33 32 31 31 31 30 29 28 27 27 26 25 25 24 23
Wind_Direction
236 235 235 231 231 231 233 234 236 239 243 246 249 250 252 257 261 266 267 269 271 275
234 234 234 231 229 230 232 234 236 238 241 244 244 246 250 254 259 262 265 268 272 278
232 234 233 230 228 229 230 232 234 235 237 238 240 244 250 254 258 261 265 269 274 280
231 232 232 232 229 228 228 230 231 232 233 236 239 245 247 255 258 261 263 269 277 280
229 229 231 230 228 227 227 227 228 230 230 236 239 244 249 254 259 260 264 272 276 281
226 228 229 227 226 226 224 225 226 227 230 234 238 245 249 254 257 261 267 273 277 280
224 226 226 225 225 223 223 224 224 227 230 235 240 244 248 254 257 263 269 274 277 279
224 224 224 223 224 224 224 224 223 226 231 235 240 245 249 253 258 264 269 274 275 279
223 223 224 224 224 225 225 224 224 227 231 236 242 245 248 253 260 264 268 270 274 278
223 222 221 222 222 222 223 223 225 230 233 238 242 243 248 255 260 264 265 269 271 276
224 222 222 223 223 223 224 226 228 231 234 237 241 243 249 255 259 262 265 266 269 274
224 223 223 223 223 224 225 228 229 232 234 236 239 243 249 253 257 261 262 262 269 273
224 223 222 223 223 225 227 229 230 232 234 236 239 243 249 253 257 260 257 261 268 272
226 225 224 222 222 225 229 228 229 231 234 237 240 243 248 255 258 254 255 261 265 269